Regional Weather Roundup
Issued by NWS

Home | Current Version | Previous Version | Graphics & Text | Print | Product List | Glossary On
Versions: 1 2 3 4 5 6 7 8 9 10 11 12 13 14 15 16 17 18 19 20 21 22 23 24 25 26 27 28 29 30 31 32 33 34 35 36 37 38 39 40 41 42 43 44 45 46 47 48 49 50
000
ASUS43 KIND 240309
RWRIN

WEATHER ROUNDUP FOR INDIANA
NATIONAL WEATHER SERVICE INDIANAPOLIS IN
1000 PM EST SUN NOV 23 2014

NOTE: "FAIR" INDICATES FEW OR NO CLOUDS BELOW 12,000 FEET WITH NO
SIGNIFICANT WEATHER AND/OR OBSTRUCTIONS TO VISIBILITY.

* - STATION DOES NOT REPORT WEATHER SUCH AS PRECIPITATION OR FOG.

+ - STATION NOT QUALITY CONTROLLED BY THE NATIONAL WEATHER SERVICE.
    USE DATA WITH CAUTION...ESPECIALLY DEWPOINT AND RELATIVE
    HUMIDITY OBSERVATIONS.

INZ001>003-010>013-019-020-240400-
NORTHWEST INDIANA

CITY           SKY/WX    TMP DP  RH WIND       PRES   REMARKS
GARY /AIRPORT/ RAIN      53  51  94 SE7       29.21F
KNOX *+        CLOUDY    50  49  95 SE8       29.22F
LA PORTE +     RAIN     N/A N/A N/A SE6       29.23F
MICHIGAN CITY+ RAIN      50  50 100 SE5       29.22F
MONTICELLO +   RAIN      51  51  99 CALM      29.21F
RENSSELAER +   RAIN      50  50 100 E7        29.20F
VALPARAISO     LGT RAIN  50  49  96 E7        29.22F FOG

$$

LMZ046-743>745-240400-
SOUTHERN LAKE MICHIGAN

STATION/POSITION TIME  TEMP WIND        PRES
                       AIR  DIR/SP/G
                 (UTC) (F)  (DEG/KT/KT) (MB)
MICHIGAN CITY    0300   51  100/ 10/ 13   N/A

$$

INZ004-005-014>016-021>024-240400-
NORTH CENTRAL INDIANA

CITY           SKY/WX    TMP DP  RH WIND       PRES   REMARKS
GOSHEN         LGT RAIN  57  48  72 SE10      29.25F
LOGANSPORT +   RAIN      52  50  93 SE7       29.22F
PERU/GRISSOM   RAIN      52  52 100 SE9       29.20F FOG
ROCHESTER +    RAIN      54  54 100 SE7       29.22F
SOUTH BEND     RAIN      51  49  92 SE12      29.25F FOG
WARSAW +       RAIN      50  50 100 SE7       29.24F

$$

INZ006>009-017-018-025>027-240400-
NORTHEAST INDIANA

CITY           SKY/WX    TMP DP  RH WIND       PRES   REMARKS
ANGOLA *+      CLOUDY    48  39  71 SE10      29.26F
AUBURN +       RAIN      52  48  87 SE6       29.27F
FORT WAYNE     RAIN      52  51  97 SE10      29.26F FOG
HUNTINGTON +   RAIN      52  51  98 SE8       29.23F

$$

INZ028-029-035-036-043>045-051>053-240400-
WEST CENTRAL INDIANA

CITY           SKY/WX    TMP DP  RH WIND       PRES   REMARKS
GREENCASTLE +  LGT RAIN  50  50 100 CALM      29.20F
LAFAYETTE      RAIN      52  51  97 SE5       29.20F FOG
TERRE HAUTE    LGT RAIN  52  51  97 SE6       29.20F FOG

$$

INZ030>032-037>040-046>048-054>057-064-065-240400-
CENTRAL INDIANA

CITY           SKY/WX    TMP DP  RH WIND       PRES   REMARKS
CP ATTERBURY + RAIN      55  54  94 S13G20    29.23F
COLUMBUS       LGT RAIN  55  55 100 S21       29.24F FOG
FRANKFORT +    RAIN     N/A N/A N/A E7        29.22F
GREENWOOD *+   CLOUDY    55  52  88 SE17G23   29.22F
INDIANAPOLIS   RAIN      52  52 100 SE14G24   29.19F FOG
-EAGLE CREEK   RAIN      53  53 100 SE10G20   29.20F FOG
KOKOMO *+      CLOUDY    52  52 100 SE10      29.21F
MARION +       RAIN     N/A N/A N/A SE14      29.23F
MT COMFORT *+  CLOUDY    54 N/A N/A S14G21    29.22F
SHELBYVILLE    LGT RAIN  57  54  89 S22G28    29.23F
ZIONSVILLE +   HVY RAIN  54  51  90 S15       29.22F

$$

INZ033-034-041-042-049-050-058-059-240400-
EAST CENTRAL INDIANA

CITY           SKY/WX    TMP DP  RH WIND       PRES   REMARKS
MUNCIE         RAIN      55  53  93 S14G23    29.24F FOG

$$

INZ060-061-067>069-081>083-085>088-240400-
SOUTHWEST INDIANA

CITY           SKY/WX    TMP DP  RH WIND       PRES   REMARKS
EVANSVILLE     LGT RAIN  59  56  89 SW16      29.28R
HUNTINGBURG *+ CLOUDY    57  54  88 S17G24    29.26S
WASHINGTON +   LGT RAIN  57  57 100 S17       29.21F

$$

INZ062-063-066-070>080-084-089>092-240400-
SOUTH CENTRAL AND SOUTHEAST INDIANA

CITY           SKY/WX    TMP DP  RH WIND       PRES   REMARKS
BLOOMINGTON    LGT RAIN  55  54  96 S14G21    29.21F
NORTH VERNON + DRIZZLE   57  57 100 S15G22    29.27

$$



USA.gov is the U.S. government's official web portal to all federal, state and local government web resources and services.